| time (UTC) | temp F | wind direction | speed MPH | gust MPH | rain 1hr in | rain 24hr in | rain mn in | humidity % | barometer mb |
| 20260508033012 | 52 | 238 | 0.0 | 0.0 | 0.00 | 0.19 | 0.18 | 71 | 1009.9 |
| 20260508031508 | 52 | 239 | 0.0 | 2.0 | 0.00 | 0.19 | 0.18 | 69 | 1009.8 |
| 20260508030004 | 53 | 228 | 0.0 | 2.0 | 0.00 | 0.19 | 0.18 | 67 | 1009.8 |
| 20260508024505 | 51 | 183 | 0.0 | 4.0 | 0.00 | 0.19 | 0.18 | 71 | 1009.8 |
| 20260508023022 | 50 | 227 | 0.0 | 0.0 | 0.00 | 0.19 | 0.18 | 74 | 1009.5 |
| 20260508021517 | 49 | 227 | 0.0 | 0.0 | 0.00 | 0.19 | 0.18 | 73 | 1009.5 |
| 20260508020015 | 49 | 227 | 0.0 | 0.0 | 0.00 | 0.19 | 0.18 | 72 | 1009.6 |
| 20260508014513 | 50 | 227 | 0.0 | 0.0 | 0.00 | 0.19 | 0.18 | 70 | 1009.3 |
| 20260508013013 | 51 | 227 | 0.0 | 0.0 | 0.00 | 0.19 | 0.18 | 68 | 1009.3 |
| 20260508011509 | 52 | 227 | 0.0 | 0.0 | 0.00 | 0.19 | 0.18 | 64 | 1009.0 |
| 20260508010020 | 52 | 227 | 0.0 | 0.0 | 0.00 | 0.19 | 0.18 | 62 | 1009.0 |
| 20260508004536 | 54 | 227 | 0.0 | 0.0 | 0.00 | 0.19 | 0.18 | 59 | 1009.0 |
| 20260508003025 | 55 | 227 | 0.0 | 0.0 | 0.00 | 0.19 | 0.18 | 55 | 1008.7 |
| 20260508001527 | 56 | 227 | 0.0 | 0.0 | 0.00 | 0.19 | 0.18 | 50 | 1008.8 |
| 20260508000019 | 57 | 227 | 0.0 | 0.0 | 0.00 | 0.19 | 0.18 | 47 | 1008.8 |
| 20260507234524 | 59 | 227 | 0.0 | 2.0 | 0.00 | 0.19 | 0.18 | 43 | 1008.7 |
| 20260507233023 | 60 | 226 | 0.0 | 3.0 | 0.00 | 0.19 | 0.18 | 39 | 1008.6 |
| 20260507231512 | 61 | 265 | 0.0 | 5.0 | 0.00 | 0.19 | 0.18 | 38 | 1008.5 |
| 20260507230008 | 62 | 266 | 0.0 | 7.0 | 0.00 | 0.19 | 0.18 | 36 | 1008.2 |
| 20260507224528 | 62 | 261 | 0.0 | 2.0 | 0.00 | 0.19 | 0.18 | 36 | 1008.1 |
| 20260507223024 | 63 | 297 | 0.0 | 4.0 | 0.00 | 0.19 | 0.18 | 37 | 1008.1 |
| 20260507221522 | 64 | 354 | 0.0 | 3.0 | 0.00 | 0.19 | 0.18 | 35 | 1008.2 |
| 20260507220020 | 63 | 283 | 0.0 | 3.0 | 0.00 | 0.19 | 0.18 | 35 | 1008.2 |
| 20260507214525 | 64 | 302 | 1.0 | 8.0 | 0.00 | 0.19 | 0.18 | 35 | 1008.3 |
| 20260507213017 | 64 | 310 | 1.0 | 4.0 | 0.00 | 0.19 | 0.18 | 34 | 1008.3 |
| 20260507211512 | 64 | 240 | 1.0 | 7.0 | 0.00 | 0.19 | 0.18 | 34 | 1008.2 |
| 20260507210012 | 65 | 217 | 2.0 | 7.0 | 0.00 | 0.19 | 0.18 | 34 | 1008.1 |
| 20260507204509 | 64 | 297 | 1.0 | 6.0 | 0.00 | 0.19 | 0.18 | 38 | 1008.0 |
| 20260507203008 | 64 | 111 | 0.0 | 6.0 | 0.00 | 0.19 | 0.18 | 39 | 1007.9 |
| 20260507201512 | 64 | 354 | 1.0 | 4.0 | 0.00 | 0.19 | 0.18 | 37 | 1008.0 |
| 20260507200006 | 64 | 273 | 1.0 | 8.0 | 0.00 | 0.19 | 0.18 | 36 | 1008.2 |
| 20260507194502 | 64 | 359 | 2.0 | 8.0 | 0.00 | 0.19 | 0.18 | 36 | 1008.4 |
| 20260507193021 | 64 | 354 | 1.0 | 6.0 | 0.00 | 0.19 | 0.18 | 40 | 1008.7 |
| 20260507191516 | 64 | 160 | 1.0 | 7.0 | 0.00 | 0.19 | 0.18 | 38 | 1008.7 |
| 20260507190017 | 64 | 160 | 1.0 | 4.0 | 0.00 | 0.19 | 0.18 | 42 | 1009.1 |
| 20260507184511 | 64 | 1 | 1.0 | 4.0 | 0.00 | 0.19 | 0.18 | 40 | 1009.4 |
| 20260507183025 | 63 | 328 | 2.0 | 7.0 | 0.00 | 0.19 | 0.18 | 44 | 1009.4 |
| 20260507181507 | 63 | 163 | 0.0 | 7.0 | 0.00 | 0.19 | 0.18 | 41 | 1009.3 |
| 20260507180005 | 63 | 346 | 2.0 | 4.0 | 0.00 | 0.19 | 0.18 | 46 | 1009.6 |
| 20260507174541 | 62 | 295 | 1.0 | 7.0 | 0.00 | 0.19 | 0.18 | 46 | 1009.9 |
| 20260507173024 | 62 | 11 | 1.0 | 4.0 | 0.00 | 0.19 | 0.18 | 42 | 1010.1 |
| 20260507171522 | 62 | 193 | 1.0 | 5.0 | 0.00 | 0.19 | 0.18 | 44 | 1010.3 |
| 20260507170018 | 62 | 10 | 2.0 | 5.0 | 0.00 | 0.19 | 0.18 | 46 | 1010.4 |
| 20260507164513 | 61 | 300 | 1.0 | 5.0 | 0.00 | 0.19 | 0.18 | 47 | 1010.6 |
| 20260507163018 | 61 | 288 | 1.0 | 5.0 | 0.00 | 0.19 | 0.18 | 45 | 1010.9 |
| 20260507161509 | 60 | 356 | 0.0 | 4.0 | 0.00 | 0.20 | 0.18 | 57 | 1011.0 |
| 20260507160011 | 59 | 39 | 0.0 | 4.0 | 0.00 | 0.22 | 0.18 | 58 | 1011.1 |
| 20260507154524 | 58 | 57 | 1.0 | 4.0 | 0.00 | 0.24 | 0.18 | 58 | 1011.5 |
| 20260507153027 | 57 | 84 | 0.0 | 7.0 | 0.00 | 0.25 | 0.18 | 59 | 1011.7 |
| 20260507151521 | 57 | 25 | 1.0 | 7.0 | 0.00 | 0.26 | 0.18 | 64 | 1012.0 |
| 20260507150019 | 56 | 26 | 0.0 | 4.0 | 0.00 | 0.26 | 0.18 | 66 | 1012.1 |
| 20260507144528 | 56 | 77 | 1.0 | 7.0 | 0.00 | 0.26 | 0.18 | 68 | 1012.2 |
| 20260507143018 | 55 | 199 | 1.0 | 3.0 | 0.00 | 0.26 | 0.18 | 72 | 1012.3 |
| 20260507141514 | 54 | 359 | 1.0 | 4.0 | 0.00 | 0.26 | 0.18 | 77 | 1012.4 |
| 20260507140037 | 53 | 156 | 0.0 | 4.0 | 0.00 | 0.26 | 0.18 | 80 | 1012.5 |
| 20260507134524 | 53 | 314 | 0.0 | 3.0 | 0.00 | 0.26 | 0.18 | 82 | 1012.5 |
| 20260507133024 | 52 | 169 | 0.0 | 3.0 | 0.00 | 0.26 | 0.18 | 85 | 1012.5 |
| 20260507131541 | 52 | 27 | 1.0 | 3.0 | 0.00 | 0.26 | 0.18 | 87 | 1012.4 |
| 20260507130020 | 51 | 268 | 0.0 | 2.0 | 0.00 | 0.26 | 0.18 | 91 | 1012.5 |
| 20260507124522 | 51 | 305 | 1.0 | 4.0 | 0.00 | 0.26 | 0.18 | 93 | 1012.5 |
| 20260507123018 | 51 | 329 | 0.0 | 5.0 | 0.00 | 0.26 | 0.18 | 94 | 1012.5 |
| 20260507121504 | 51 | 314 | 1.0 | 3.0 | 0.00 | 0.26 | 0.18 | 94 | 1012.3 |
| 20260507120005 | 51 | 247 | 0.0 | 0.0 | 0.00 | 0.26 | 0.18 | 95 | 1012.2 |
| 20260507114504 | 50 | 247 | 0.0 | 0.0 | 0.00 | 0.26 | 0.18 | 94 | 1012.2 |
| 20260507113004 | 50 | 232 | 0.0 | 2.0 | 0.00 | 0.26 | 0.18 | 94 | 1012.2 |
| 20260507111506 | 50 | 266 | 0.0 | 2.0 | 0.00 | 0.26 | 0.18 | 94 | 1012.0 |
| 20260507110004 | 50 | 266 | 0.0 | 2.0 | 0.00 | 0.26 | 0.18 | 94 | 1011.8 |
| 20260507104506 | 50 | 227 | 0.0 | 1.0 | 0.00 | 0.26 | 0.18 | 94 | 1011.6 |
| 20260507103004 | 50 | 359 | 0.0 | 2.0 | 0.00 | 0.26 | 0.18 | 94 | 1011.4 |
| 20260507101503 | 50 | 359 | 0.0 | 0.0 | 0.00 | 0.26 | 0.18 | 94 | 1011.3 |
| 20260507100009 | 49 | 359 | 0.0 | 0.0 | 0.01 | 0.26 | 0.18 | 94 | 1011.2 |
| 20260507094504 | 49 | 359 | 0.0 | 0.0 | 0.01 | 0.26 | 0.18 | 94 | 1011.2 |
| 20260507093005 | 49 | 359 | 0.0 | 0.0 | 0.01 | 0.26 | 0.18 | 94 | 1011.2 |
| 20260507091505 | 49 | 359 | 0.0 | 0.0 | 0.01 | 0.26 | 0.18 | 94 | 1011.0 |
| 20260507090007 | 49 | 359 | 0.0 | 2.0 | 0.00 | 0.25 | 0.17 | 93 | 1010.7 |
| 20260507084514 | 49 | 6 | 0.0 | 2.0 | 0.00 | 0.25 | 0.17 | 93 | 1010.9 |
| 20260507083017 | 50 | 34 | 0.0 | 2.0 | 0.00 | 0.25 | 0.17 | 93 | 1010.9 |
| 20260507081508 | 50 | 340 | 0.0 | 2.0 | 0.00 | 0.25 | 0.17 | 93 | 1010.7 |
| 20260507080009 | 50 | 13 | 0.0 | 2.0 | 0.00 | 0.25 | 0.17 | 93 | 1011.1 |
| 20260507074510 | 50 | 345 | 0.0 | 2.0 | 0.00 | 0.25 | 0.17 | 93 | 1010.9 |
| 20260507073008 | 50 | 249 | 1.0 | 2.0 | 0.00 | 0.25 | 0.17 | 93 | 1011.1 |
| 20260507071516 | 50 | 169 | 0.0 | 2.0 | 0.00 | 0.25 | 0.17 | 93 | 1011.2 |
| 20260507070019 | 51 | 243 | 0.0 | 4.0 | 0.01 | 0.25 | 0.17 | 93 | 1011.5 |
| 20260507064512 | 51 | 272 | 0.0 | 2.0 | 0.02 | 0.25 | 0.17 | 92 | 1011.2 |
| 20260507063014 | 51 | 266 | 0.0 | 2.0 | 0.14 | 0.25 | 0.17 | 92 | 1010.8 |
| 20260507061513 | 52 | 129 | 0.0 | 2.0 | 0.17 | 0.25 | 0.17 | 92 | 1010.8 |
| 20260507060014 | 53 | 335 | 0.0 | 2.0 | 0.16 | 0.24 | 0.16 | 91 | 1011.2 |
| 20260507054512 | 54 | 62 | 0.0 | 2.0 | 0.15 | 0.23 | 0.15 | 90 | 1010.7 |
| 20260507053012 | 54 | 326 | 1.0 | 5.0 | 0.03 | 0.11 | 0.03 | 89 | 1011.1 |
| 20260507051516 | 55 | 354 | 1.0 | 3.0 | 0.00 | 0.08 | 0.00 | 88 | 1009.8 |
| 20260507050036 | 55 | 319 | 0.0 | 2.0 | 0.00 | 0.08 | 0.00 | 88 | 1009.9 |
| 20260507044522 | 56 | 192 | 0.0 | 3.0 | 0.00 | 0.08 | 0.00 | 87 | 1009.9 |
| 20260507043019 | 56 | 271 | 0.0 | 6.0 | 0.01 | 0.08 | 0.00 | 87 | 1009.5 |
| 20260507041518 | 58 | 318 | 1.0 | 7.0 | 0.01 | 0.08 | 0.00 | 87 | 1009.7 |
| 20260507040022 | 61 | 318 | 1.0 | 5.0 | 0.01 | 0.08 | 0.00 | 89 | 1009.5 |
| 20260507034516 | 61 | 299 | 0.0 | 2.0 | 0.01 | 0.08 | 0.08 | 88 | 1009.4 |